GW2454 Weather Reports


Display with metric or nautical units.
time (UTC)temp
F
wind
direction
speed
MPH
gust
MPH
rain 1hr
in
rain 24hr
in
rain mn
in
humidity
%
barometer
mb
20260506095914 76 205 3.0 3.0 0.00 0.00 0.00 90 1005.6
20260506095412 76 184 2.0 2.0 0.00 0.00 0.00 90 1005.2
20260506094908 76 220 2.0 2.0 0.00 0.00 0.00 90 1005.5
20260506094407 76 230 4.0 7.0 0.00 0.00 0.00 90 1005.3
20260506093904 76 224 3.0 5.0 0.00 0.00 0.00 90 1005.3
20260506093402 76 226 3.0 3.0 0.00 0.00 0.00 90 1005.2
20260506092859 77 202 2.0 3.0 0.00 0.00 0.00 90 1005.6
20260506092357 77 208 3.0 3.0 0.00 0.00 0.00 90 1005.3
20260506091853 77 172 2.0 3.0 0.00 0.00 0.00 90 1005.2
20260506091352 77 228 5.0 6.0 0.00 0.00 0.00 90 1005.2
20260506090848 77 220 5.0 7.0 0.00 0.00 0.00 90 1005.1
20260506090346 77 162 4.0 6.0 0.00 0.00 0.00 90 1005.0
20260506085843 77 234 5.0 7.0 0.00 0.00 0.00 90 1005.2
20260506085339 77 235 3.0 3.0 0.00 0.00 0.00 90 1005.1
20260506084835 77 201 3.0 3.0 0.00 0.00 0.00 90 1005.4
20260506084332 77 213 2.0 2.0 0.00 0.00 0.00 90 1005.3
20260506083829 77 195 3.0 3.0 0.00 0.00 0.00 90 1005.1
20260506083326 77 188 4.0 6.0 0.00 0.00 0.00 90 1005.3
20260506082824 77 166 5.0 7.0 0.00 0.00 0.00 90 1005.5
20260506082320 77 230 4.0 5.0 0.00 0.00 0.00 90 1005.2
20260506081816 77 236 3.0 3.0 0.00 0.00 0.00 90 1005.6
20260506081314 77 229 3.0 3.0 0.00 0.00 0.00 89 1005.4
20260506080812 77 229 2.0 2.0 0.00 0.00 0.00 89 1005.6
20260506080308 77 206 2.0 3.0 0.00 0.00 0.00 89 1005.8
20260506073252 77 232 2.0 2.0 0.00 0.00 0.00 89 1006.2
20260506072749 77 217 3.0 3.0 0.00 0.00 0.00 89 1006.1
20260506072246 77 222 3.0 3.0 0.00 0.00 0.00 89 1006.4
20260506071744 77 209 6.0 7.0 0.00 0.00 0.00 89 1006.2
20260506071242 77 250 2.0 3.0 0.00 0.00 0.00 89 1006.2
20260506070738 77 194 3.0 3.0 0.00 0.00 0.00 89 1006.3
20260506070235 77 221 3.0 3.0 0.00 0.00 0.00 89 1006.3
20260506062212 77 234 3.0 3.0 0.00 0.00 0.00 89 1006.2
20260506061708 77 212 2.0 2.0 0.00 0.00 0.00 89 1006.3
20260506061206 77 168 2.0 3.0 0.00 0.00 0.00 89 1006.2
20260506060705 77 220 4.0 6.0 0.00 0.00 0.00 89 1006.4
20260506060201 77 220 4.0 6.0 0.00 0.00 0.00 89 1006.3
20260506051133 78 204 3.0 5.0 0.00 0.00 0.00 88 1006.2
20260506050631 78 201 2.0 2.0 0.00 0.00 0.00 88 1006.4
20260506050128 78 219 2.0 2.0 0.00 0.00 0.00 88 1006.4
20260506045121 78 238 4.0 5.0 0.00 0.00 0.00 87 1006.4
20260506044619 78 178 4.0 6.0 0.00 0.00 0.00 87 1006.5
20260506044116 78 209 2.0 2.0 0.00 0.00 0.00 87 1006.2
20260506043613 78 222 1.0 2.0 0.00 0.00 0.00 87 1006.2
20260506043111 78 221 5.0 6.0 0.00 0.00 0.00 86 1006.3
20260506042610 78 220 2.0 2.0 0.00 0.00 0.00 86 1006.4
20260506042107 78 215 2.0 3.0 0.00 0.00 0.00 86 1006.5
20260506041606 78 148 1.0 1.0 0.00 0.00 0.00 86 1006.5
20260506041102 78 200 4.0 5.0 0.00 0.00 0.00 86 1006.4
20260506040600 78 221 3.0 3.0 0.00 0.00 0.00 86 1006.1
20260506040056 78 216 3.0 3.0 0.00 0.00 0.00 86 1006.1
20260506035553 78 211 5.0 6.0 0.00 0.00 0.00 85 1006.2
20260506035050 78 203 3.0 3.0 0.00 0.00 0.00 85 1006.1
20260506034547 78 205 3.0 3.0 0.00 0.00 0.00 85 1006.1
20260506034044 78 235 3.0 3.0 0.00 0.00 0.00 85 1005.9
20260506033541 79 194 4.0 6.0 0.00 0.00 0.00 85 1006.0
20260506033038 79 192 2.0 2.0 0.00 0.00 0.00 85 1005.8
20260506032536 79 227 3.0 3.0 0.00 0.00 0.00 85 1005.9
20260506032032 79 214 2.0 2.0 0.00 0.00 0.00 84 1005.8
20260506031530 79 156 2.0 2.0 0.00 0.00 0.00 84 1005.9
20260506031027 79 231 5.0 7.0 0.00 0.00 0.00 84 1005.9
20260506030525 79 191 3.0 5.0 0.00 0.00 0.00 84 1005.7
20260506030022 79 192 3.0 3.0 0.00 0.00 0.00 84 1005.8
20260506025519 79 201 5.0 6.0 0.00 0.00 0.00 84 1005.7
20260506025015 79 169 3.0 3.0 0.00 0.00 0.00 84 1005.5
20260506024512 79 178 4.0 5.0 0.00 0.00 0.00 84 1005.6
20260506024008 79 195 2.0 2.0 0.00 0.00 0.00 83 1005.0
20260506023504 79 196 3.0 5.0 0.00 0.00 0.00 83 1005.0
20260506023002 79 236 3.0 3.0 0.00 0.00 0.00 83 1005.3
20260506022500 79 229 2.0 2.0 0.00 0.00 0.00 83 1005.0
20260506021957 79 219 5.0 7.0 0.00 0.00 0.00 83 1004.8
20260506021454 79 240 5.0 8.0 0.00 0.00 0.00 82 1005.1
20260506020951 79 226 2.0 2.0 0.00 0.00 0.00 82 1004.8
20260506020449 80 218 1.0 2.0 0.00 0.00 0.00 82 1004.5
20260506015946 80 225 4.0 5.0 0.00 0.00 0.00 81 1004.9
20260506015443 80 228 4.0 5.0 0.00 0.00 0.00 81 1004.8
20260506014940 80 198 5.0 6.0 0.00 0.00 0.00 81 1004.6
20260506014437 80 204 4.0 7.0 0.00 0.00 0.00 81 1004.6
20260506013933 80 202 5.0 6.0 0.00 0.00 0.00 81 1004.4
20260506013432 80 245 5.0 6.0 0.00 0.00 0.00 80 1004.3
20260506012928 80 213 4.0 6.0 0.00 0.00 0.00 80 1004.4
20260506012424 80 210 4.0 5.0 0.00 0.00 0.00 80 1004.2
20260506011921 80 216 4.0 5.0 0.00 0.00 0.00 80 1004.3
20260506011419 80 223 2.0 2.0 0.00 0.00 0.00 81 1004.1
20260506010915 80 225 2.0 2.0 0.00 0.00 0.00 80 1004.1
20260506010414 80 179 4.0 5.0 0.00 0.00 0.00 80 1004.1
20260506005910 80 205 5.0 6.0 0.00 0.00 0.00 80 1003.9
20260506005408 80 198 3.0 5.0 0.00 0.00 0.00 80 1004.0
20260506004903 80 184 4.0 5.0 0.00 0.00 0.00 80 1003.8
20260506004401 80 226 3.0 3.0 0.00 0.00 0.00 80 1003.9
20260506003857 81 189 4.0 5.0 0.00 0.00 0.00 80 1003.9
20260506003353 81 244 6.0 7.0 0.00 0.00 0.00 80 1003.6
20260506002850 81 222 3.0 5.0 0.00 0.00 0.00 80 1003.6
20260506002346 81 224 3.0 3.0 0.00 0.00 0.00 80 1003.8
20260506001842 81 189 2.0 2.0 0.00 0.00 0.00 80 1003.9
20260506001339 81 133 4.0 5.0 0.00 0.00 0.00 79 1003.8
20260506000836 81 174 3.0 5.0 0.00 0.00 0.00 79 1003.5
20260506000334 82 212 5.0 6.0 0.00 0.00 0.00 78 1003.6
20260505235830 82 194 4.0 5.0 0.00 0.00 0.00 78 1003.7
20260505235328 82 190 4.0 6.0 0.00 0.00 0.00 77 1003.6
20260505234824 82 229 3.0 3.0 0.00 0.00 0.00 76 1003.6
20260505234322 82 228 3.0 5.0 0.00 0.00 0.00 75 1003.5
20260505233819 83 226 4.0 6.0 0.00 0.00 0.00 76 1003.5
20260505233317 83 231 3.0 3.0 0.00 0.00 0.00 76 1003.5
20260505232814 83 226 3.0 5.0 0.00 0.00 0.00 75 1003.4
20260505232312 82 227 3.0 3.0 0.00 0.00 0.00 75 1003.5
20260505231808 83 256 6.0 7.0 0.00 0.00 0.00 75 1003.6
20260505231307 83 247 5.0 7.0 0.00 0.00 0.00 75 1003.7
20260505230804 83 234 4.0 5.0 0.00 0.00 0.00 75 1003.6
20260505230301 83 208 5.0 6.0 0.00 0.00 0.00 75 1003.8
20260505225757 83 170 2.0 2.0 0.00 0.00 0.00 74 1003.6
20260505225255 83 249 6.0 7.0 0.00 0.00 0.00 74 1003.7
20260505224749 83 204 3.0 3.0 0.00 0.00 0.00 74 1003.8
20260505224248 84 227 5.0 7.0 0.00 0.00 0.00 74 1003.5
20260505223745 84 283 5.0 6.0 0.00 0.00 0.00 74 1003.6
20260505223241 84 218 6.0 7.0 0.00 0.00 0.00 74 1003.3
20260505222737 84 249 2.0 2.0 0.00 0.00 0.00 74 1003.7
20260505222234 84 225 6.0 8.0 0.00 0.00 0.00 74 1003.9
20260505221731 84 240 6.0 8.0 0.00 0.00 0.00 74 1003.8
20260505221227 84 199 3.0 3.0 0.00 0.00 0.00 75 1003.6
20260505220724 83 210 5.0 6.0 0.00 0.00 0.00 75 1003.7
20260505220222 83 179 4.0 5.0 0.00 0.00 0.00 75 1003.7
20260505215720 84 235 3.0 3.0 0.00 0.00 0.00 76 1004.1
20260505215217 84 244 5.0 6.0 0.00 0.00 0.00 74 1003.9
20260505214715 84 223 3.0 3.0 0.00 0.00 0.00 75 1003.9
20260505214212 84 200 5.0 6.0 0.00 0.00 0.00 75 1004.1
20260505213709 84 202 3.0 3.0 0.00 0.00 0.00 75 1004.2
20260505213207 84 213 3.0 3.0 0.00 0.00 0.00 74 1004.2
20260505212702 84 217 3.0 3.0 0.00 0.00 0.00 75 1004.4
20260505212200 84 273 3.0 5.0 0.00 0.00 0.00 75 1004.4
20260505211657 84 231 2.0 2.0 0.00 0.00 0.00 75 1004.5
20260505211154 84 214 4.0 6.0 0.00 0.00 0.00 75 1004.1
20260505210650 84 224 5.0 6.0 0.00 0.00 0.00 74 1004.6
20260505210147 84 241 3.0 3.0 0.00 0.00 0.00 74 1004.4
20260505205645 84 208 3.0 3.0 0.00 0.00 0.00 74 1004.6
20260505205143 85 252 4.0 5.0 0.00 0.00 0.00 73 1004.5
20260505204639 85 185 3.0 3.0 0.00 0.00 0.00 73 1004.7
20260505204137 85 238 5.0 7.0 0.00 0.00 0.00 72 1004.8
20260505203634 84 203 2.0 3.0 0.00 0.00 0.00 74 1004.8
20260505203131 84 215 4.0 6.0 0.00 0.00 0.00 73 1005.3
20260505202626 84 218 3.0 6.0 0.00 0.00 0.00 74 1004.9
20260505202122 84 214 4.0 5.0 0.00 0.00 0.00 74 1004.8
20260505201619 85 210 4.0 5.0 0.00 0.00 0.00 73 1005.1
20260505201117 85 247 5.0 6.0 0.00 0.00 0.00 73 1005.3
20260505200615 84 220 3.0 3.0 0.00 0.00 0.00 74 1005.1
20260505200112 85 221 6.0 8.0 0.00 0.00 0.00 74 1005.3
20260505195608 84 236 6.0 7.0 0.00 0.00 0.00 75 1005.3
20260505195106 83 231 5.0 8.0 0.00 0.00 0.00 76 1005.4
20260505194602 83 164 4.0 5.0 0.00 0.00 0.00 77 1005.6
20260505194058 82 209 4.0 5.0 0.00 0.00 0.00 78 1005.5
20260505193555 82 242 4.0 5.0 0.00 0.00 0.00 78 1005.4
20260505193052 82 220 5.0 6.0 0.00 0.00 0.00 77 1005.6
20260505192551 82 239 5.0 7.0 0.00 0.00 0.00 76 1005.8
20260505192048 83 215 5.0 6.0 0.00 0.00 0.00 76 1005.5
20260505191546 83 260 5.0 7.0 0.00 0.00 0.00 75 1005.8
20260505191043 83 237 3.0 5.0 0.00 0.00 0.00 76 1005.7
20260505190538 83 203 5.0 5.0 0.00 0.00 0.00 76 1005.8
20260505190034 83 212 5.0 6.0 0.00 0.00 0.00 76 1005.9
20260505185531 82 214 5.0 9.0 0.00 0.00 0.00 77 1005.9
20260505185028 82 246 3.0 3.0 0.00 0.00 0.00 78 1006.0
20260505184524 82 215 3.0 3.0 0.00 0.00 0.00 77 1006.1
20260505184021 82 259 5.0 6.0 0.00 0.00 0.00 77 1006.2
20260505183518 82 242 2.0 3.0 0.00 0.00 0.00 78 1006.2
20260505183015 81 239 5.0 6.0 0.00 0.00 0.00 79 1006.0
20260505182512 80 232 5.0 6.0 0.00 0.00 0.00 80 1006.0
20260505182008 81 194 5.0 6.0 0.00 0.00 0.00 80 1006.1
20260505181505 81 213 8.0 10.0 0.00 0.00 0.00 79 1006.2
20260505181003 81 36 4.0 7.0 0.00 0.00 0.00 79 1006.1
20260505180458 81 276 3.0 5.0 0.00 0.00 0.00 79 1006.0
20260505175955 81 214 3.0 5.0 0.00 0.00 0.00 80 1006.2
20260505175451 81 221 3.0 5.0 0.00 0.00 0.00 80 1006.3
20260505174948 80 231 3.0 3.0 0.00 0.00 0.00 81 1006.3
20260505174445 80 225 1.0 2.0 0.00 0.00 0.00 81 1006.4
20260505173941 80 242 2.0 2.0 0.00 0.00 0.00 81 1006.1
20260505173438 80 230 5.0 7.0 0.00 0.00 0.00 81 1006.5
20260505172935 80 185 4.0 5.0 0.00 0.00 0.00 82 1006.4
20260505172433 79 228 5.0 6.0 0.00 0.00 0.00 83 1006.8
20260505171932 78 245 2.0 2.0 0.00 0.00 0.00 85 1006.6
20260505171430 78 221 3.0 3.0 0.00 0.00 0.00 85 1006.5
20260505170926 78 220 4.0 6.0 0.00 0.00 0.00 86 1006.5
20260505170423 78 212 4.0 5.0 0.00 0.00 0.00 85 1006.6
20260505165918 79 178 4.0 6.0 0.00 0.00 0.00 83 1006.7
20260505165415 79 213 3.0 5.0 0.00 0.00 0.00 82 1006.7
20260505164910 79 266 3.0 6.0 0.00 0.00 0.00 82 1006.7
20260505164407 79 220 3.0 3.0 0.00 0.00 0.00 82 1006.7
20260505163905 79 196 2.0 2.0 0.00 0.00 0.00 83 1006.6
20260505163404 79 260 8.0 10.0 0.00 0.00 0.00 82 1006.8
20260505162902 79 216 6.0 8.0 0.00 0.00 0.00 82 1006.7
20260505162357 79 221 3.0 5.0 0.00 0.00 0.00 83 1006.7
20260505161855 78 203 3.0 3.0 0.00 0.00 0.00 83 1006.6
20260505161351 78 241 5.0 6.0 0.00 0.00 0.00 82 1006.4
20260505160849 78 196 3.0 3.0 0.00 0.00 0.00 83 1006.7
20260505160347 78 217 5.0 7.0 0.00 0.00 0.00 83 1006.5
20260505153325 77 213 4.0 5.0 0.00 0.00 0.00 84 1006.4
20260505152822 77 199 3.0 3.0 0.00 0.00 0.00 84 1006.4
20260505152319 77 210 3.0 5.0 0.00 0.00 0.00 84 1006.4
20260505151814 78 270 4.0 6.0 0.00 0.00 0.00 84 1006.5
20260505151311 77 223 3.0 3.0 0.00 0.00 0.00 84 1006.3
20260505150808 77 260 3.0 5.0 0.00 0.00 0.00 84 1006.3
20260505150305 77 232 2.0 2.0 0.00 0.00 0.00 84 1006.3
20260505140229 76 209 3.0 3.0 0.00 0.00 0.00 86 1005.9
20260505130153 74 223 3.0 3.0 0.00 0.00 0.00 88 1006.1
20260505124643 73 166 3.0 3.0 0.00 0.00 0.00 89 1005.6
20260505124139 73 158 2.0 2.0 0.00 0.00 0.00 89 1005.5
20260505123635 73 202 3.0 5.0 0.00 0.00 0.00 89 1005.6
20260505123132 73 224 2.0 2.0 0.00 0.00 0.00 89 1006.0
20260505122629 73 179 1.0 1.0 0.00 0.00 0.00 89 1006.0
20260505122126 73 190 1.0 1.0 0.00 0.00 0.00 89 1005.7
20260505121622 73 216 3.0 3.0 0.00 0.00 0.00 90 1006.1
20260505121119 73 204 2.0 2.0 0.00 0.00 0.00 90 1005.9
20260505120615 73 181 1.0 2.0 0.00 0.00 0.00 90 1005.8
20260505120112 72 194 1.0 1.0 0.00 0.00 0.00 90 1005.5
20260505115606 72 211 3.0 3.0 0.00 0.00 0.00 90 1005.5
20260505115104 72 203 6.0 7.0 0.00 0.00 0.00 90 1005.5
20260505114601 72 211 1.0 2.0 0.00 0.00 0.00 90 1005.3
20260505114057 72 204 3.0 3.0 0.00 0.00 0.00 90 1005.4
20260505113553 72 236 3.0 3.0 0.00 0.00 0.00 90 1005.8
20260505113050 72 216 2.0 3.0 0.00 0.00 0.00 91 1005.9
20260505112546 72 243 2.0 2.0 0.00 0.00 0.00 91 1005.5
20260505112044 71 237 2.0 2.0 0.00 0.00 0.00 91 1005.7
20260505111538 71 205 1.0 2.0 0.00 0.00 0.00 91 1005.6
20260505111035 71 220 1.0 1.0 0.00 0.00 0.00 91 1005.6
20260505110531 71 201 2.0 3.0 0.00 0.00 0.00 91 1005.4
20260505102003 72 152 1.0 2.0 0.00 0.00 0.00 90 1005.5
20260505101501 72 223 3.0 3.0 0.00 0.00 0.00 90 1005.5
20260505100958 72 237 2.0 2.0 0.00 0.00 0.00 89 1005.4
20260505100455 72 236 2.0 2.0 0.00 0.00 0.00 90 1005.5